owner,sensor,date,latitude,longitude,vertical_datum,sea_water_practical_salinity,qcFlag 
NERRS,ioos:station:NOAA.NERRS:gtmpcwq:1,2014-04-01T00:45:00Z,29.6671,-81.2574,1.24,2.0,1111122 
NERRS,ioos:station:NOAA.NERRS:gtmpcwq:1,2014-04-01T01:45:00Z,29.6671,-81.2574,1.34,1.6,1111122 
NERRS,ioos:station:NOAA.NERRS:gtmpcwq:1,2014-04-01T02:45:00Z,29.6671,-81.2574,1.48,4.2,1111122 
NERRS,ioos:station:NOAA.NERRS:gtmpcwq:1,2014-04-01T03:45:00Z,29.6671,-81.2574,1.64,7.9,1111122 
NERRS,ioos:station:NOAA.NERRS:gtmpcwq:1,2014-04-01T04:45:00Z,29.6671,-81.2574,1.74,9.8,1111122 
NERRS,ioos:station:NOAA.NERRS:gtmpcwq:1,2014-04-01T05:45:00Z,29.6671,-81.2574,1.76,12.4,1111122 
NERRS,ioos:station:NOAA.NERRS:gtmpcwq:1,2014-04-01T06:45:00Z,29.6671,-81.2574,1.69,11.7,1111122 
NERRS,ioos:station:NOAA.NERRS:gtmpcwq:1,2014-04-01T07:45:00Z,29.6671,-81.2574,1.6,6.6,1111122 
NERRS,ioos:station:NOAA.NERRS:gtmpcwq:1,2014-04-01T08:45:00Z,29.6671,-81.2574,1.5,5.0,1111122 
NERRS,ioos:station:NOAA.NERRS:gtmpcwq:1,2014-04-01T09:45:00Z,29.6671,-81.2574,1.42,3.3,1111122 
NERRS,ioos:station:NOAA.NERRS:gtmpcwq:1,2014-04-01T10:45:00Z,29.6671,-81.2574,1.35,2.3,1111122 
NERRS,ioos:station:NOAA.NERRS:gtmpcwq:1,2014-04-01T11:45:00Z,29.6671,-81.2574,1.29,2.1,1111122 
NERRS,ioos:station:NOAA.NERRS:gtmpcwq:1,2014-04-01T12:45:00Z,29.6671,-81.2574,1.25,2.5,1111122 
NERRS,ioos:station:NOAA.NERRS:gtmpcwq:1,2014-04-01T13:45:00Z,29.6671,-81.2574,1.29,0.9,1111122 
NERRS,ioos:station:NOAA.NERRS:gtmpcwq:1,2014-04-01T14:45:00Z,29.6671,-81.2574,1.39,3.4,1111122 
NERRS,ioos:station:NOAA.NERRS:gtmpcwq:1,2014-04-01T15:45:00Z,29.6671,-81.2574,1.53,5.7,1111122 
NERRS,ioos:station:NOAA.NERRS:gtmpcwq:1,2014-04-01T16:45:00Z,29.6671,-81.2574,1.65,13.6,1111122 
NERRS,ioos:station:NOAA.NERRS:gtmpcwq:1,2014-04-01T17:45:00Z,29.6671,-81.2574,1.67,15.3,1111122 
NERRS,ioos:station:NOAA.NERRS:gtmpcwq:1,2014-04-01T18:45:00Z,29.6671,-81.2574,1.6,15.2,1111122 
NERRS,ioos:station:NOAA.NERRS:gtmpcwq:1,2014-04-01T19:45:00Z,29.6671,-81.2574,1.51,14.8,1111122 
NERRS,ioos:station:NOAA.NERRS:gtmpcwq:1,2014-04-01T20:45:00Z,29.6671,-81.2574,1.42,13.2,1111122 
NERRS,ioos:station:NOAA.NERRS:gtmpcwq:1,2014-04-01T21:45:00Z,29.6671,-81.2574,1.35,11.1,1111122 
NERRS,ioos:station:NOAA.NERRS:gtmpcwq:1,2014-04-01T22:45:00Z,29.6671,-81.2574,1.28,10.4,1111122 
NERRS,ioos:station:NOAA.NERRS:gtmpcwq:1,2014-04-01T23:45:00Z,29.6671,-81.2574,1.23,8.5,1111122 
NERRS,ioos:station:NOAA.NERRS:gtmpcwq:1,2014-04-02T00:45:00Z,29.6671,-81.2574,1.2,7.1,1111122 
NERRS,ioos:station:NOAA.NERRS:gtmpcwq:1,2014-04-02T01:45:00Z,29.6671,-81.2574,1.26,1.4,1111122 
NERRS,ioos:station:NOAA.NERRS:gtmpcwq:1,2014-04-02T02:45:00Z,29.6671,-81.2574,1.36,2.2,1111122 
NERRS,ioos:station:NOAA.NERRS:gtmpcwq:1,2014-04-02T03:45:00Z,29.6671,-81.2574,1.5,5.9,1111122 
NERRS,ioos:station:NOAA.NERRS:gtmpcwq:1,2014-04-02T04:45:00Z,29.6671,-81.2574,1.66,11.0,1111122 
NERRS,ioos:station:NOAA.NERRS:gtmpcwq:1,2014-04-02T05:45:00Z,29.6671,-81.2574,1.73,12.0,1111122 
NERRS,ioos:station:NOAA.NERRS:gtmpcwq:1,2014-04-02T06:45:00Z,29.6671,-81.2574,1.74,15.1,1111122 
NERRS,ioos:station:NOAA.NERRS:gtmpcwq:1,2014-04-02T07:45:00Z,29.6671,-81.2574,1.65,12.7,1111122 
NERRS,ioos:station:NOAA.NERRS:gtmpcwq:1,2014-04-02T08:45:00Z,29.6671,-81.2574,1.56,8.4,1111122 
NERRS,ioos:station:NOAA.NERRS:gtmpcwq:1,2014-04-02T09:45:00Z,29.6671,-81.2574,1.47,6.6,1111122 
NERRS,ioos:station:NOAA.NERRS:gtmpcwq:1,2014-04-02T10:45:00Z,29.6671,-81.2574,1.39,5.6,1111122 
NERRS,ioos:station:NOAA.NERRS:gtmpcwq:1,2014-04-02T11:45:00Z,29.6671,-81.2574,1.33,6.1,1111122 
NERRS,ioos:station:NOAA.NERRS:gtmpcwq:1,2014-04-02T12:45:00Z,29.6671,-81.2574,1.28,5.6,1111122 
NERRS,ioos:station:NOAA.NERRS:gtmpcwq:1,2014-04-02T13:45:00Z,29.6671,-81.2574,1.24,4.3,1111122 
NERRS,ioos:station:NOAA.NERRS:gtmpcwq:1,2014-04-02T14:45:00Z,29.6671,-81.2574,1.29,2.7,1111122 
NERRS,ioos:station:NOAA.NERRS:gtmpcwq:1,2014-04-02T15:45:00Z,29.6671,-81.2574,1.39,3.6,1111122 
NERRS,ioos:station:NOAA.NERRS:gtmpcwq:1,2014-04-02T16:45:00Z,29.6671,-81.2574,1.5,8.1,1111122 
NERRS,ioos:station:NOAA.NERRS:gtmpcwq:1,2014-04-02T17:45:00Z,29.6671,-81.2574,1.6,11.9,1111122 
NERRS,ioos:station:NOAA.NERRS:gtmpcwq:1,2014-04-02T18:45:00Z,29.6671,-81.2574,1.61,15.3,1111122 
NERRS,ioos:station:NOAA.NERRS:gtmpcwq:1,2014-04-02T19:45:00Z,29.6671,-81.2574,1.52,15.3,1111122 
NERRS,ioos:station:NOAA.NERRS:gtmpcwq:1,2014-04-02T20:45:00Z,29.6671,-81.2574,1.44,12.9,1111122 
NERRS,ioos:station:NOAA.NERRS:gtmpcwq:1,2014-04-02T22:45:00Z,29.6671,-81.2574,1.31,10.6,1111122 
NERRS,ioos:station:NOAA.NERRS:gtmpcwq:1,2014-04-02T23:45:00Z,29.6671,-81.2574,1.26,10.0,1111122 
NERRS,ioos:station:NOAA.NERRS:gtmpcwq:1,2014-04-03T00:45:00Z,29.6671,-81.2574,1.21,9.5,1111122 
NERRS,ioos:station:NOAA.NERRS:gtmpcwq:1,2014-04-03T01:45:00Z,29.6671,-81.2574,1.18,5.1,1111122 
NERRS,ioos:station:NOAA.NERRS:gtmpcwq:1,2014-04-03T02:45:00Z,29.6671,-81.2574,1.24,1.3,1111122 
NERRS,ioos:station:NOAA.NERRS:gtmpcwq:1,2014-04-03T03:45:00Z,29.6671,-81.2574,1.34,4.2,1111122 
NERRS,ioos:station:NOAA.NERRS:gtmpcwq:1,2014-04-03T04:45:00Z,29.6671,-81.2574,1.47,9.1,1111122 
NERRS,ioos:station:NOAA.NERRS:gtmpcwq:1,2014-04-03T05:45:00Z,29.6671,-81.2574,1.61,10.4,1111122 
NERRS,ioos:station:NOAA.NERRS:gtmpcwq:1,2014-04-03T06:45:00Z,29.6671,-81.2574,1.68,12.1,1111122 
NERRS,ioos:station:NOAA.NERRS:gtmpcwq:1,2014-04-03T07:45:00Z,29.6671,-81.2574,1.63,12.7,1111122 
NERRS,ioos:station:NOAA.NERRS:gtmpcwq:1,2014-04-03T08:45:00Z,29.6671,-81.2574,1.54,11.0,1111122 
NERRS,ioos:station:NOAA.NERRS:gtmpcwq:1,2014-04-03T09:45:00Z,29.6671,-81.2574,1.45,10.4,1111122 
NERRS,ioos:station:NOAA.NERRS:gtmpcwq:1,2014-04-03T10:45:00Z,29.6671,-81.2574,1.38,10.0,1111122 
NERRS,ioos:station:NOAA.NERRS:gtmpcwq:1,2014-04-03T11:45:00Z,29.6671,-81.2574,1.31,9.6,1111122 
NERRS,ioos:station:NOAA.NERRS:gtmpcwq:1,2014-04-03T12:45:00Z,29.6671,-81.2574,1.26,8.5,1111122 
NERRS,ioos:station:NOAA.NERRS:gtmpcwq:1,2014-04-03T13:45:00Z,29.6671,-81.2574,1.21,6.6,1111122 
NERRS,ioos:station:NOAA.NERRS:gtmpcwq:1,2014-04-03T14:45:00Z,29.6671,-81.2574,1.19,4.0,1111122 
NERRS,ioos:station:NOAA.NERRS:gtmpcwq:1,2014-04-03T15:45:00Z,29.6671,-81.2574,1.24,2.5,1111122 
NERRS,ioos:station:NOAA.NERRS:gtmpcwq:1,2014-04-03T16:45:00Z,29.6671,-81.2574,1.34,5.0,1111122 
NERRS,ioos:station:NOAA.NERRS:gtmpcwq:1,2014-04-03T17:45:00Z,29.6671,-81.2574,1.44,9.2,1111122 
NERRS,ioos:station:NOAA.NERRS:gtmpcwq:1,2014-04-03T18:45:00Z,29.6671,-81.2574,1.52,11.2,1111122 
NERRS,ioos:station:NOAA.NERRS:gtmpcwq:1,2014-04-03T19:45:00Z,29.6671,-81.2574,1.51,13.5,1111122 
NERRS,ioos:station:NOAA.NERRS:gtmpcwq:1,2014-04-03T20:45:00Z,29.6671,-81.2574,1.43,12.4,1111122 
NERRS,ioos:station:NOAA.NERRS:gtmpcwq:1,2014-04-03T21:45:00Z,29.6671,-81.2574,1.36,11.3,1111122 
NERRS,ioos:station:NOAA.NERRS:gtmpcwq:1,2014-04-03T22:45:00Z,29.6671,-81.2574,1.29,11.1,1111122 
NERRS,ioos:station:NOAA.NERRS:gtmpcwq:1,2014-04-03T23:45:00Z,29.6671,-81.2574,1.24,9.5,1111122 
NERRS,ioos:station:NOAA.NERRS:gtmpcwq:1,2014-04-04T00:45:00Z,29.6671,-81.2574,1.2,8.9,1111122 
NERRS,ioos:station:NOAA.NERRS:gtmpcwq:1,2014-04-04T01:45:00Z,29.6671,-81.2574,1.16,8.4,1111122 
NERRS,ioos:station:NOAA.NERRS:gtmpcwq:1,2014-04-04T02:45:00Z,29.6671,-81.2574,1.15,6.5,1111122 
NERRS,ioos:station:NOAA.NERRS:gtmpcwq:1,2014-04-04T03:45:00Z,29.6671,-81.2574,1.21,1.4,1111122 
NERRS,ioos:station:NOAA.NERRS:gtmpcwq:1,2014-04-04T04:45:00Z,29.6671,-81.2574,1.32,5.6,1111122 
NERRS,ioos:station:NOAA.NERRS:gtmpcwq:1,2014-04-04T06:45:00Z,29.6671,-81.2574,1.57,14.0,1111122 
NERRS,ioos:station:NOAA.NERRS:gtmpcwq:1,2014-04-04T07:45:00Z,29.6671,-81.2574,1.61,15.2,1111122 
NERRS,ioos:station:NOAA.NERRS:gtmpcwq:1,2014-04-04T08:45:00Z,29.6671,-81.2574,1.54,13.5,1111122 
NERRS,ioos:station:NOAA.NERRS:gtmpcwq:1,2014-04-04T09:45:00Z,29.6671,-81.2574,1.45,11.9,1111122 
NERRS,ioos:station:NOAA.NERRS:gtmpcwq:1,2014-04-04T10:45:00Z,29.6671,-81.2574,1.38,12.5,1111122 
NERRS,ioos:station:NOAA.NERRS:gtmpcwq:1,2014-04-04T11:45:00Z,29.6671,-81.2574,1.31,12.2,1111122 
NERRS,ioos:station:NOAA.NERRS:gtmpcwq:1,2014-04-04T12:45:00Z,29.6671,-81.2574,1.25,11.5,1111122 
NERRS,ioos:station:NOAA.NERRS:gtmpcwq:1,2014-04-04T13:45:00Z,29.6671,-81.2574,1.19,11.5,1111122 
NERRS,ioos:station:NOAA.NERRS:gtmpcwq:1,2014-04-04T14:45:00Z,29.6671,-81.2574,1.16,3.6,1111122 
NERRS,ioos:station:NOAA.NERRS:gtmpcwq:1,2014-04-04T15:45:00Z,29.6671,-81.2574,1.15,1.7,1111122 
NERRS,ioos:station:NOAA.NERRS:gtmpcwq:1,2014-04-04T16:45:00Z,29.6671,-81.2574,1.23,3.5,1111122 
NERRS,ioos:station:NOAA.NERRS:gtmpcwq:1,2014-04-04T17:45:00Z,29.6671,-81.2574,1.31,6.2,1111122 
NERRS,ioos:station:NOAA.NERRS:gtmpcwq:1,2014-04-04T18:45:00Z,29.6671,-81.2574,1.42,9.0,1111122 
NERRS,ioos:station:NOAA.NERRS:gtmpcwq:1,2014-04-04T19:45:00Z,29.6671,-81.2574,1.48,12.4,1111122 
NERRS,ioos:station:NOAA.NERRS:gtmpcwq:1,2014-04-04T20:45:00Z,29.6671,-81.2574,1.45,14.2,1111122 
NERRS,ioos:station:NOAA.NERRS:gtmpcwq:1,2014-04-04T21:45:00Z,29.6671,-81.2574,1.37,13.4,1111122 
NERRS,ioos:station:NOAA.NERRS:gtmpcwq:1,2014-04-04T22:45:00Z,29.6671,-81.2574,1.3,12.9,1111122 
NERRS,ioos:station:NOAA.NERRS:gtmpcwq:1,2014-04-04T23:45:00Z,29.6671,-81.2574,1.24,12.0,1111122 
NERRS,ioos:station:NOAA.NERRS:gtmpcwq:1,2014-04-05T00:45:00Z,29.6671,-81.2574,1.18,11.4,1111122 
NERRS,ioos:station:NOAA.NERRS:gtmpcwq:1,2014-04-05T01:45:00Z,29.6671,-81.2574,1.15,10.4,1111122 
NERRS,ioos:station:NOAA.NERRS:gtmpcwq:1,2014-04-05T02:45:00Z,29.6671,-81.2574,1.11,9.1,1111122 
NERRS,ioos:station:NOAA.NERRS:gtmpcwq:1,2014-04-05T03:45:00Z,29.6671,-81.2574,1.12,7.0,1111122 
NERRS,ioos:station:NOAA.NERRS:gtmpcwq:1,2014-04-05T04:45:00Z,29.6671,-81.2574,1.19,2.8,1111122 
NERRS,ioos:station:NOAA.NERRS:gtmpcwq:1,2014-04-05T05:45:00Z,29.6671,-81.2574,1.3,9.3,1111122 
NERRS,ioos:station:NOAA.NERRS:gtmpcwq:1,2014-04-05T06:45:00Z,29.6671,-81.2574,1.44,12.2,1111122 
NERRS,ioos:station:NOAA.NERRS:gtmpcwq:1,2014-04-05T07:45:00Z,29.6671,-81.2574,1.54,14.8,1111122 
NERRS,ioos:station:NOAA.NERRS:gtmpcwq:1,2014-04-05T08:45:00Z,29.6671,-81.2574,1.56,15.1,1111122 
NERRS,ioos:station:NOAA.NERRS:gtmpcwq:1,2014-04-05T09:45:00Z,29.6671,-81.2574,1.49,13.4,1111122 
NERRS,ioos:station:NOAA.NERRS:gtmpcwq:1,2014-04-05T10:45:00Z,29.6671,-81.2574,1.41,13.8,1111122 
NERRS,ioos:station:NOAA.NERRS:gtmpcwq:1,2014-04-05T11:45:00Z,29.6671,-81.2574,1.34,13.4,1111122 
NERRS,ioos:station:NOAA.NERRS:gtmpcwq:1,2014-04-05T12:45:00Z,29.6671,-81.2574,1.28,13.0,1111122 
NERRS,ioos:station:NOAA.NERRS:gtmpcwq:1,2014-04-05T13:45:00Z,29.6671,-81.2574,1.22,12.6,1111122 
NERRS,ioos:station:NOAA.NERRS:gtmpcwq:1,2014-04-05T14:45:00Z,29.6671,-81.2574,1.17,11.4,1111122 
NERRS,ioos:station:NOAA.NERRS:gtmpcwq:1,2014-04-05T15:45:00Z,29.6671,-81.2574,1.15,8.3,1111122 
NERRS,ioos:station:NOAA.NERRS:gtmpcwq:1,2014-04-05T16:45:00Z,29.6671,-81.2574,1.15,6.7,1111122 
NERRS,ioos:station:NOAA.NERRS:gtmpcwq:1,2014-04-05T17:45:00Z,29.6671,-81.2574,1.23,5.5,1111122 
NERRS,ioos:station:NOAA.NERRS:gtmpcwq:1,2014-04-05T18:45:00Z,29.6671,-81.2574,1.32,9.2,1111122 
NERRS,ioos:station:NOAA.NERRS:gtmpcwq:1,2014-04-05T19:45:00Z,29.6671,-81.2574,1.4,10.3,1111122 
NERRS,ioos:station:NOAA.NERRS:gtmpcwq:1,2014-04-05T20:45:00Z,29.6671,-81.2574,1.45,12.9,1111122 
NERRS,ioos:station:NOAA.NERRS:gtmpcwq:1,2014-04-05T21:45:00Z,29.6671,-81.2574,1.39,12.5,1111122 
NERRS,ioos:station:NOAA.NERRS:gtmpcwq:1,2014-04-05T22:45:00Z,29.6671,-81.2574,1.32,12.4,1111122 
NERRS,ioos:station:NOAA.NERRS:gtmpcwq:1,2014-04-05T23:45:00Z,29.6671,-81.2574,1.26,11.7,1111122 
NERRS,ioos:station:NOAA.NERRS:gtmpcwq:1,2014-04-06T00:45:00Z,29.6671,-81.2574,1.2,10.9,1111122 
NERRS,ioos:station:NOAA.NERRS:gtmpcwq:1,2014-04-06T01:45:00Z,29.6671,-81.2574,1.18,10.4,1111122 
NERRS,ioos:station:NOAA.NERRS:gtmpcwq:1,2014-04-06T02:45:00Z,29.6671,-81.2574,1.14,10.3,1111122 
NERRS,ioos:station:NOAA.NERRS:gtmpcwq:1,2014-04-06T03:45:00Z,29.6671,-81.2574,1.11,9.5,1111122 
NERRS,ioos:station:NOAA.NERRS:gtmpcwq:1,2014-04-06T04:45:00Z,29.6671,-81.2574,1.14,5.8,1111122 
NERRS,ioos:station:NOAA.NERRS:gtmpcwq:1,2014-04-06T05:45:00Z,29.6671,-81.2574,1.21,7.0,1111122 
NERRS,ioos:station:NOAA.NERRS:gtmpcwq:1,2014-04-06T06:45:00Z,29.6671,-81.2574,1.31,9.0,1111122 
NERRS,ioos:station:NOAA.NERRS:gtmpcwq:1,2014-04-06T07:45:00Z,29.6671,-81.2574,1.43,10.6,1111122 
NERRS,ioos:station:NOAA.NERRS:gtmpcwq:1,2014-04-06T09:45:00Z,29.6671,-81.2574,1.5,14.3,1111122 
NERRS,ioos:station:NOAA.NERRS:gtmpcwq:1,2014-04-06T11:45:00Z,29.6671,-81.2574,1.35,13.5,1111122 
NERRS,ioos:station:NOAA.NERRS:gtmpcwq:1,2014-04-06T13:45:00Z,29.6671,-81.2574,1.23,12.6,1111122 
NERRS,ioos:station:NOAA.NERRS:gtmpcwq:1,2014-04-06T14:45:00Z,29.6671,-81.2574,1.19,11.7,1111122 
NERRS,ioos:station:NOAA.NERRS:gtmpcwq:1,2014-04-06T15:45:00Z,29.6671,-81.2574,1.15,11.1,1111122 
NERRS,ioos:station:NOAA.NERRS:gtmpcwq:1,2014-04-06T16:45:00Z,29.6671,-81.2574,1.13,9.1,1111122 
NERRS,ioos:station:NOAA.NERRS:gtmpcwq:1,2014-04-06T17:45:00Z,29.6671,-81.2574,1.18,3.8,1111122 
NERRS,ioos:station:NOAA.NERRS:gtmpcwq:1,2014-04-06T18:45:00Z,29.6671,-81.2574,1.25,8.0,1111122 
NERRS,ioos:station:NOAA.NERRS:gtmpcwq:1,2014-04-06T19:45:00Z,29.6671,-81.2574,1.35,8.8,1111122 
NERRS,ioos:station:NOAA.NERRS:gtmpcwq:1,2014-04-06T20:45:00Z,29.6671,-81.2574,1.45,10.0,1111122 
NERRS,ioos:station:NOAA.NERRS:gtmpcwq:1,2014-04-06T21:45:00Z,29.6671,-81.2574,1.49,12.4,1111122 
NERRS,ioos:station:NOAA.NERRS:gtmpcwq:1,2014-04-06T22:45:00Z,29.6671,-81.2574,1.45,11.9,1111122 
NERRS,ioos:station:NOAA.NERRS:gtmpcwq:1,2014-04-06T23:45:00Z,29.6671,-81.2574,1.38,11.7,1111122 
NERRS,ioos:station:NOAA.NERRS:gtmpcwq:1,2014-04-07T00:45:00Z,29.6671,-81.2574,1.32,11.6,1111122 
NERRS,ioos:station:NOAA.NERRS:gtmpcwq:1,2014-04-07T01:45:00Z,29.6671,-81.2574,1.25,11.4,1111122 
NERRS,ioos:station:NOAA.NERRS:gtmpcwq:1,2014-04-07T02:45:00Z,29.6671,-81.2574,1.19,10.7,1111122 
NERRS,ioos:station:NOAA.NERRS:gtmpcwq:1,2014-04-07T03:45:00Z,29.6671,-81.2574,1.15,10.2,1111122 
NERRS,ioos:station:NOAA.NERRS:gtmpcwq:1,2014-04-07T04:45:00Z,29.6671,-81.2574,1.18,5.6,1111122 
NERRS,ioos:station:NOAA.NERRS:gtmpcwq:1,2014-04-07T05:45:00Z,29.6671,-81.2574,1.25,5.5,1111122 
NERRS,ioos:station:NOAA.NERRS:gtmpcwq:1,2014-04-07T06:45:00Z,29.6671,-81.2574,1.35,10.4,1111122 
NERRS,ioos:station:NOAA.NERRS:gtmpcwq:1,2014-04-07T07:45:00Z,29.6671,-81.2574,1.48,11.1,1111122 
NERRS,ioos:station:NOAA.NERRS:gtmpcwq:1,2014-04-07T08:45:00Z,29.6671,-81.2574,1.6,13.4,1111122 
NERRS,ioos:station:NOAA.NERRS:gtmpcwq:1,2014-04-07T09:45:00Z,29.6671,-81.2574,1.66,15.7,1111122 
NERRS,ioos:station:NOAA.NERRS:gtmpcwq:1,2014-04-07T10:45:00Z,29.6671,-81.2574,1.66,17.7,1111122 
NERRS,ioos:station:NOAA.NERRS:gtmpcwq:1,2014-04-07T11:45:00Z,29.6671,-81.2574,1.59,15.8,1111122 
NERRS,ioos:station:NOAA.NERRS:gtmpcwq:1,2014-04-07T12:45:00Z,29.6671,-81.2574,1.5,12.7,1111122 
NERRS,ioos:station:NOAA.NERRS:gtmpcwq:1,2014-04-07T13:45:00Z,29.6671,-81.2574,1.42,10.6,1111122 
NERRS,ioos:station:NOAA.NERRS:gtmpcwq:1,2014-04-07T14:45:00Z,29.6671,-81.2574,1.34,10.3,1111122 
NERRS,ioos:station:NOAA.NERRS:gtmpcwq:1,2014-04-07T15:45:00Z,29.6671,-81.2574,1.28,9.5,1111122 
NERRS,ioos:station:NOAA.NERRS:gtmpcwq:1,2014-04-07T16:45:00Z,29.6671,-81.2574,1.23,7.0,1111122 
NERRS,ioos:station:NOAA.NERRS:gtmpcwq:1,2014-04-07T17:45:00Z,29.6671,-81.2574,1.21,5.2,1111122 
NERRS,ioos:station:NOAA.NERRS:gtmpcwq:1,2014-04-07T18:45:00Z,29.6671,-81.2574,1.28,6.2,1111122 
NERRS,ioos:station:NOAA.NERRS:gtmpcwq:1,2014-04-07T19:45:00Z,29.6671,-81.2574,1.37,10.2,1111122 
NERRS,ioos:station:NOAA.NERRS:gtmpcwq:1,2014-04-07T20:45:00Z,29.6671,-81.2574,1.46,15.4,1111122 
NERRS,ioos:station:NOAA.NERRS:gtmpcwq:1,2014-04-07T21:45:00Z,29.6671,-81.2574,1.53,17.5,1111122 
NERRS,ioos:station:NOAA.NERRS:gtmpcwq:1,2014-04-07T22:45:00Z,29.6671,-81.2574,1.52,17.9,1111122 
NERRS,ioos:station:NOAA.NERRS:gtmpcwq:1,2014-04-07T23:45:00Z,29.6671,-81.2574,1.46,15.8,1111122 
NERRS,ioos:station:NOAA.NERRS:gtmpcwq:1,2014-04-08T00:45:00Z,29.6671,-81.2574,1.38,17.4,1111122 
NERRS,ioos:station:NOAA.NERRS:gtmpcwq:1,2014-04-08T01:45:00Z,29.6671,-81.2574,1.31,16.7,1111122 
NERRS,ioos:station:NOAA.NERRS:gtmpcwq:1,2014-04-08T02:45:00Z,29.6671,-81.2574,1.25,15.5,1111122 
NERRS,ioos:station:NOAA.NERRS:gtmpcwq:1,2014-04-08T03:45:00Z,29.6671,-81.2574,1.19,13.8,1111122 
NERRS,ioos:station:NOAA.NERRS:gtmpcwq:1,2014-04-08T04:45:00Z,29.6671,-81.2574,1.15,12.9,1111122 
NERRS,ioos:station:NOAA.NERRS:gtmpcwq:1,2014-04-08T05:45:00Z,29.6671,-81.2574,1.13,9.9,1111122 
NERRS,ioos:station:NOAA.NERRS:gtmpcwq:1,2014-04-08T06:45:00Z,29.6671,-81.2574,1.19,6.5,1111122 
NERRS,ioos:station:NOAA.NERRS:gtmpcwq:1,2014-04-08T07:45:00Z,29.6671,-81.2574,1.29,13.0,1111122 
NERRS,ioos:station:NOAA.NERRS:gtmpcwq:1,2014-04-08T08:45:00Z,29.6671,-81.2574,1.4,15.6,1111122 
NERRS,ioos:station:NOAA.NERRS:gtmpcwq:1,2014-04-08T09:45:00Z,29.6671,-81.2574,1.51,17.1,1111122 
NERRS,ioos:station:NOAA.NERRS:gtmpcwq:1,2014-04-08T10:45:00Z,29.6671,-81.2574,1.56,19.4,1111122 
NERRS,ioos:station:NOAA.NERRS:gtmpcwq:1,2014-04-08T11:45:00Z,29.6671,-81.2574,1.54,20.2,1111122 
NERRS,ioos:station:NOAA.NERRS:gtmpcwq:1,2014-04-08T12:45:00Z,29.6671,-81.2574,1.48,17.5,1111122 
NERRS,ioos:station:NOAA.NERRS:gtmpcwq:1,2014-04-08T13:45:00Z,29.6671,-81.2574,1.4,15.7,1111122 
NERRS,ioos:station:NOAA.NERRS:gtmpcwq:1,2014-04-08T14:45:00Z,29.6671,-81.2574,1.32,16.5,1111122 
NERRS,ioos:station:NOAA.NERRS:gtmpcwq:1,2014-04-08T15:45:00Z,29.6671,-81.2574,1.25,16.2,1111122 
NERRS,ioos:station:NOAA.NERRS:gtmpcwq:1,2014-04-08T16:45:00Z,29.6671,-81.2574,1.19,15.2,1111122 
NERRS,ioos:station:NOAA.NERRS:gtmpcwq:1,2014-04-08T17:45:00Z,29.6671,-81.2574,1.14,12.8,1111122 
NERRS,ioos:station:NOAA.NERRS:gtmpcwq:1,2014-04-08T18:45:00Z,29.6671,-81.2574,1.12,10.0,1111122 
NERRS,ioos:station:NOAA.NERRS:gtmpcwq:1,2014-04-08T19:45:00Z,29.6671,-81.2574,1.18,7.5,1111122 
NERRS,ioos:station:NOAA.NERRS:gtmpcwq:1,2014-04-08T20:45:00Z,29.6671,-81.2574,1.27,12.6,1111122 
NERRS,ioos:station:NOAA.NERRS:gtmpcwq:1,2014-04-08T21:45:00Z,29.6671,-81.2574,1.38,15.9,1111122 
NERRS,ioos:station:NOAA.NERRS:gtmpcwq:1,2014-04-08T22:45:00Z,29.6671,-81.2574,1.45,18.1,1111122 
NERRS,ioos:station:NOAA.NERRS:gtmpcwq:1,2014-04-08T23:45:00Z,29.6671,-81.2574,1.43,20.8,1111122 
NERRS,ioos:station:NOAA.NERRS:gtmpcwq:1,2014-04-09T00:45:00Z,29.6671,-81.2574,1.39,20.8,1111122 
NERRS,ioos:station:NOAA.NERRS:gtmpcwq:1,2014-04-09T01:45:00Z,29.6671,-81.2574,1.34,19.0,1111122 
NERRS,ioos:station:NOAA.NERRS:gtmpcwq:1,2014-04-09T02:45:00Z,29.6671,-81.2574,1.27,18.7,1111122 
NERRS,ioos:station:NOAA.NERRS:gtmpcwq:1,2014-04-09T03:45:00Z,29.6671,-81.2574,1.21,18.7,1111122 
NERRS,ioos:station:NOAA.NERRS:gtmpcwq:1,2014-04-09T04:45:00Z,29.6671,-81.2574,1.16,18.4,1111122 
NERRS,ioos:station:NOAA.NERRS:gtmpcwq:1,2014-04-09T05:45:00Z,29.6671,-81.2574,1.11,17.7,1111122 
NERRS,ioos:station:NOAA.NERRS:gtmpcwq:1,2014-04-09T06:45:00Z,29.6671,-81.2574,1.07,17.7,1111122 
NERRS,ioos:station:NOAA.NERRS:gtmpcwq:1,2014-04-09T07:45:00Z,29.6671,-81.2574,1.1,9.6,1111122 
NERRS,ioos:station:NOAA.NERRS:gtmpcwq:1,2014-04-09T08:45:00Z,29.6671,-81.2574,1.18,12.2,1111122 
NERRS,ioos:station:NOAA.NERRS:gtmpcwq:1,2014-04-09T09:45:00Z,29.6671,-81.2574,1.29,13.8,1111122 
NERRS,ioos:station:NOAA.NERRS:gtmpcwq:1,2014-04-09T10:45:00Z,29.6671,-81.2574,1.4,14.7,1111122 
NERRS,ioos:station:NOAA.NERRS:gtmpcwq:1,2014-04-09T11:45:00Z,29.6671,-81.2574,1.48,15.8,1111122 
NERRS,ioos:station:NOAA.NERRS:gtmpcwq:1,2014-04-09T12:45:00Z,29.6671,-81.2574,1.44,17.8,1111122 
NERRS,ioos:station:NOAA.NERRS:gtmpcwq:1,2014-04-09T13:45:00Z,29.6671,-81.2574,1.38,17.8,1111122 
NERRS,ioos:station:NOAA.NERRS:gtmpcwq:1,2014-04-09T14:45:00Z,29.6671,-81.2574,1.32,17.3,1111122 
NERRS,ioos:station:NOAA.NERRS:gtmpcwq:1,2014-04-09T15:45:00Z,29.6671,-81.2574,1.26,17.0,1111122 
NERRS,ioos:station:NOAA.NERRS:gtmpcwq:1,2014-04-09T16:45:00Z,29.6671,-81.2574,1.2,16.8,1111122 
NERRS,ioos:station:NOAA.NERRS:gtmpcwq:1,2014-04-09T17:45:00Z,29.6671,-81.2574,1.16,15.6,1111122 
NERRS,ioos:station:NOAA.NERRS:gtmpcwq:1,2014-04-09T18:45:00Z,29.6671,-81.2574,1.14,14.0,1111122 
NERRS,ioos:station:NOAA.NERRS:gtmpcwq:1,2014-04-09T19:45:00Z,29.6671,-81.2574,1.16,11.4,1111122 
NERRS,ioos:station:NOAA.NERRS:gtmpcwq:1,2014-04-09T20:45:00Z,29.6671,-81.2574,1.21,12.2,1111122 
NERRS,ioos:station:NOAA.NERRS:gtmpcwq:1,2014-04-09T21:45:00Z,29.6671,-81.2574,1.31,11.1,1111122 
NERRS,ioos:station:NOAA.NERRS:gtmpcwq:1,2014-04-09T23:45:00Z,29.6671,-81.2574,1.51,12.9,1111122 
NERRS,ioos:station:NOAA.NERRS:gtmpcwq:1,2014-04-10T00:45:00Z,29.6671,-81.2574,1.51,14.4,1111122 
NERRS,ioos:station:NOAA.NERRS:gtmpcwq:1,2014-04-10T01:45:00Z,29.6671,-81.2574,1.45,14.9,1111122 
NERRS,ioos:station:NOAA.NERRS:gtmpcwq:1,2014-04-10T02:45:00Z,29.6671,-81.2574,1.39,14.0,1111122 
NERRS,ioos:station:NOAA.NERRS:gtmpcwq:1,2014-04-10T03:45:00Z,29.6671,-81.2574,1.33,14.0,1111122 
NERRS,ioos:station:NOAA.NERRS:gtmpcwq:1,2014-04-10T04:45:00Z,29.6671,-81.2574,1.28,13.7,1111122 
NERRS,ioos:station:NOAA.NERRS:gtmpcwq:1,2014-04-10T05:45:00Z,29.6671,-81.2574,1.23,13.3,1111122 
NERRS,ioos:station:NOAA.NERRS:gtmpcwq:1,2014-04-10T06:45:00Z,29.6671,-81.2574,1.19,12.7,1111122 
NERRS,ioos:station:NOAA.NERRS:gtmpcwq:1,2014-04-10T07:45:00Z,29.6671,-81.2574,1.17,12.8,1111122 
NERRS,ioos:station:NOAA.NERRS:gtmpcwq:1,2014-04-10T08:45:00Z,29.6671,-81.2574,1.22,7.5,1111122 
NERRS,ioos:station:NOAA.NERRS:gtmpcwq:1,2014-04-10T09:45:00Z,29.6671,-81.2574,1.31,10.3,1111122 
NERRS,ioos:station:NOAA.NERRS:gtmpcwq:1,2014-04-10T10:45:00Z,29.6671,-81.2574,1.42,11.8,1111122 
NERRS,ioos:station:NOAA.NERRS:gtmpcwq:1,2014-04-10T11:45:00Z,29.6671,-81.2574,1.52,14.7,1111122 
NERRS,ioos:station:NOAA.NERRS:gtmpcwq:1,2014-04-10T12:45:00Z,29.6671,-81.2574,1.57,15.1,1111122 
NERRS,ioos:station:NOAA.NERRS:gtmpcwq:1,2014-04-10T13:45:00Z,29.6671,-81.2574,1.53,16.3,1111122 
NERRS,ioos:station:NOAA.NERRS:gtmpcwq:1,2014-04-10T14:45:00Z,29.6671,-81.2574,1.47,16.2,1111122 
NERRS,ioos:station:NOAA.NERRS:gtmpcwq:1,2014-04-10T15:45:00Z,29.6671,-81.2574,1.4,15.6,1111122 
NERRS,ioos:station:NOAA.NERRS:gtmpcwq:1,2014-04-10T16:45:00Z,29.6671,-81.2574,1.34,15.0,1111122 
NERRS,ioos:station:NOAA.NERRS:gtmpcwq:1,2014-04-10T17:45:00Z,29.6671,-81.2574,1.3,14.4,1111122 
NERRS,ioos:station:NOAA.NERRS:gtmpcwq:1,2014-04-10T18:45:00Z,29.6671,-81.2574,1.26,13.8,1111122 
NERRS,ioos:station:NOAA.NERRS:gtmpcwq:1,2014-04-10T19:45:00Z,29.6671,-81.2574,1.23,13.6,1111122 
NERRS,ioos:station:NOAA.NERRS:gtmpcwq:1,2014-04-10T20:45:00Z,29.6671,-81.2574,1.23,13.0,1111122 
NERRS,ioos:station:NOAA.NERRS:gtmpcwq:1,2014-04-10T21:45:00Z,29.6671,-81.2574,1.27,11.3,1111122 
NERRS,ioos:station:NOAA.NERRS:gtmpcwq:1,2014-04-10T22:45:00Z,29.6671,-81.2574,1.36,11.5,1111122 
NERRS,ioos:station:NOAA.NERRS:gtmpcwq:1,2014-04-10T23:45:00Z,29.6671,-81.2574,1.46,11.6,1111122 
NERRS,ioos:station:NOAA.NERRS:gtmpcwq:1,2014-04-11T00:45:00Z,29.6671,-81.2574,1.55,14.0,1111122 
NERRS,ioos:station:NOAA.NERRS:gtmpcwq:1,2014-04-11T01:45:00Z,29.6671,-81.2574,1.57,15.2,1111122 
NERRS,ioos:station:NOAA.NERRS:gtmpcwq:1,2014-04-11T02:45:00Z,29.6671,-81.2574,1.5,15.3,1111122 
NERRS,ioos:station:NOAA.NERRS:gtmpcwq:1,2014-04-11T03:45:00Z,29.6671,-81.2574,1.43,14.8,1111122 
NERRS,ioos:station:NOAA.NERRS:gtmpcwq:1,2014-04-11T04:45:00Z,29.6671,-81.2574,1.36,14.7,1111122 
NERRS,ioos:station:NOAA.NERRS:gtmpcwq:1,2014-04-11T05:45:00Z,29.6671,-81.2574,1.3,14.2,1111122 
NERRS,ioos:station:NOAA.NERRS:gtmpcwq:1,2014-04-11T06:45:00Z,29.6671,-81.2574,1.25,13.7,1111122 
NERRS,ioos:station:NOAA.NERRS:gtmpcwq:1,2014-04-11T07:45:00Z,29.6671,-81.2574,1.2,13.3,1111122 
NERRS,ioos:station:NOAA.NERRS:gtmpcwq:1,2014-04-11T08:45:00Z,29.6671,-81.2574,1.18,12.7,1111122 
NERRS,ioos:station:NOAA.NERRS:gtmpcwq:1,2014-04-11T09:45:00Z,29.6671,-81.2574,1.24,9.5,1111122 
NERRS,ioos:station:NOAA.NERRS:gtmpcwq:1,2014-04-11T10:45:00Z,29.6671,-81.2574,1.33,11.5,1111122 
NERRS,ioos:station:NOAA.NERRS:gtmpcwq:1,2014-04-11T11:45:00Z,29.6671,-81.2574,1.44,10.9,1111122 
NERRS,ioos:station:NOAA.NERRS:gtmpcwq:1,2014-04-11T12:45:00Z,29.6671,-81.2574,1.54,16.1,1111122 